Change the Weather History Date:

Friday, April 25, 2014

  Actual Average Record
Temperature  
Mean Temperature 57 °F 58 °F  
Max Temperature 67 °F 69 °F 83 °F (2009)
Min Temperature 46 °F 48 °F 31 °F (1969)
Degree Days  
Heating Degree Days 8    
Month to date heating degree days 206  
Since 1 July heating degree days 4383  
Cooling Degree Days 0    
Month to date cooling degree days 7  
Year to date cooling degree days 7  
Growing Degree Days 7 (Base 50)    
Moisture  
Dew Point 52 °F    
Average Humidity 71    
Maximum Humidity 93    
Minimum Humidity 48    
Precipitation  
Precipitation 0.09 in 0.17 in 1.13 in (1966)
Month to date precipitation 2.98 4.03  
Year to date precipitation 11.63 18.23  
Sea Level Pressure  
Sea Level Pressure 29.87 in    
Wind  
Wind Speed 9 mph (West)    
Max Wind Speed 23 mph    
Max Gust Speed 33 mph    
Visibility 8 miles    
Events Rain    
T = Trace of Precipitation, MM = Missing Value Source: NWS Daily Summary

Daily Weather History Graph

Daily Weather History Graph

Search for Another Location

Airport or City:

Trip Planner

Search our weather history database for the weather conditions in past years. The results will help you decide how hot, cold, wet, or windy it might be!

Date:

Astronomy

Apr. 25, 2014 Rise Set
Actual Time 5:54 AM CDT 7:22 PM CDT
Civil Twilight 5:27 AM CDT 7:49 PM CDT
Nautical Twilight 4:55 AM CDT 8:21 PM CDT
Astronomical Twilight 4:21 AM CDT 8:56 PM CDT
Moon 3:34 AM CDT (4/25) 3:50 PM CDT (4/25)
Length of Visible Light 14h 21m
Length of Day
13h 27m
Waning Crescent, 15% of the Moon is Illuminated
Apr 25
Waning Crescent
Apr 29
New
May 6
First Quarter
May 14
Full
May 21
Last Quarter

Hourly Weather History & Observations

Time (CDT) Temp. Dew Point Humidity Pressure Visibility Wind Dir Wind Speed Gust Speed Precip Events Conditions
12:53 AM 66.9 °F 46.9 °F 49% 29.77 in 10.0 mi South 5.8 mph - N/A   Mostly Cloudy
1:53 AM 64.9 °F 48.9 °F 56% 29.75 in 8.0 mi South 6.9 mph - 0.00 in Rain Light Rain
2:53 AM 64.0 °F 50.0 °F 60% 29.74 in 10.0 mi SSW 5.8 mph - 0.00 in   Overcast
3:53 AM 62.1 °F 55.0 °F 78% 29.72 in 5.0 mi SSW 6.9 mph - 0.00 in Rain Light Rain
4:53 AM 62.1 °F 55.9 °F 80% 29.71 in 10.0 mi SSW 9.2 mph 16.1 mph 0.00 in   Mostly Cloudy
5:53 AM 63.0 °F 55.0 °F 75% 29.70 in 10.0 mi SSW 8.1 mph 21.9 mph N/A   Mostly Cloudy
6:53 AM 62.1 °F 55.9 °F 80% 29.73 in 6.0 mi SW 10.4 mph 21.9 mph 0.00 in Rain Light Rain
7:53 AM 62.1 °F 55.9 °F 80% 29.76 in 10.0 mi WSW 16.1 mph 28.8 mph 0.01 in   Scattered Clouds
8:17 AM 63.0 °F 55.9 °F 78% 29.81 in 10.0 mi WSW 16.1 mph 24.2 mph N/A   Mostly Cloudy
8:34 AM 63.0 °F 55.0 °F 75% 29.81 in 10.0 mi WSW 18.4 mph 27.6 mph N/A   Mostly Cloudy
8:45 AM 62.1 °F 54.0 °F 75% 29.81 in 10.0 mi WSW 15.0 mph 27.6 mph N/A   Overcast
8:53 AM 62.1 °F 54.0 °F 75% 29.78 in 10.0 mi West 17.3 mph 32.2 mph N/A   Overcast
9:23 AM 59.0 °F 54.0 °F 83% 29.84 in 1.8 mi West 20.7 mph 29.9 mph 0.05 in Rain Heavy Rain
9:35 AM 57.0 °F 54.0 °F 89% 29.85 in 2.0 mi WNW 12.7 mph 24.2 mph 0.08 in Rain Rain
9:39 AM 57.0 °F 54.0 °F 89% 29.85 in 4.0 mi WNW 11.5 mph 24.2 mph 0.08 in Rain Light Rain
9:53 AM 57.0 °F 54.0 °F 89% 29.82 in 10.0 mi WNW 12.7 mph 21.9 mph 0.08 in   Overcast
10:08 AM 57.9 °F 54.0 °F 87% 29.86 in 10.0 mi West 19.6 mph 24.2 mph N/A   Overcast
10:23 AM 61.0 °F 55.0 °F 81% 29.87 in 10.0 mi West 13.8 mph 27.6 mph N/A   Mostly Cloudy
10:53 AM 59.0 °F 52.0 °F 78% 29.85 in 4.0 mi West 15.0 mph 23.0 mph 0.00 in Rain Light Rain
11:02 AM 57.9 °F 52.0 °F 81% 29.90 in 1.2 mi West 17.3 mph 31.1 mph 0.00 in Rain Light Rain
11:12 AM 57.0 °F 52.0 °F 83% 29.90 in 1.0 mi West 12.7 mph 25.3 mph 0.00 in   Haze
11:19 AM 57.0 °F 52.0 °F 83% 29.90 in 0.8 mi West 13.8 mph 20.7 mph 0.00 in Rain Light Rain
11:24 AM 57.0 °F 53.1 °F 87% 29.90 in 2.5 mi West 13.8 mph 23.0 mph 0.00 in Rain Light Rain
11:31 AM 60.1 °F 55.0 °F 83% 29.90 in 8.0 mi West 15.0 mph - 0.00 in   Overcast
11:53 AM 59.0 °F 52.0 °F 78% 29.87 in 4.0 mi West 13.8 mph 19.6 mph 0.00 in   Haze
12:40 PM 57.9 °F 53.1 °F 84% 29.93 in 9.0 mi WNW 13.8 mph - 0.00 in   Overcast
12:50 PM 59.0 °F 53.6 °F 82% 29.93 in 8.0 mi West 16.1 mph 21.9 mph 0.00 in   Overcast
12:53 PM 59.0 °F 54.0 °F 83% 29.89 in 8.0 mi WNW 16.1 mph 21.9 mph 0.00 in   Overcast
1:01 PM 60.1 °F 53.1 °F 78% 29.93 in 10.0 mi WNW 13.8 mph 21.9 mph N/A   Overcast
1:13 PM 59.0 °F 52.0 °F 78% 29.93 in 7.0 mi West 15.0 mph 24.2 mph N/A   Overcast
1:53 PM 61.0 °F 53.1 °F 75% 29.91 in 8.0 mi WNW 10.4 mph 20.7 mph N/A   Overcast
2:53 PM 62.1 °F 53.1 °F 72% 29.91 in 6.0 mi West 11.5 mph - N/A   Haze
3:22 PM 63.0 °F 51.1 °F 65% 29.95 in 10.0 mi WNW 12.7 mph 20.7 mph N/A   Overcast
3:53 PM 63.0 °F 51.1 °F 65% 29.92 in 10.0 mi WNW 11.5 mph - N/A   Overcast
4:53 PM 64.0 °F 50.0 °F 60% 29.93 in 10.0 mi WNW 11.5 mph 18.4 mph N/A   Scattered Clouds
5:53 PM 64.0 °F 46.0 °F 52% 29.92 in 10.0 mi WNW 10.4 mph 17.3 mph N/A   Partly Cloudy
6:53 PM 62.1 °F 44.1 °F 52% 29.95 in 10.0 mi WNW 6.9 mph - N/A   Clear
7:53 PM 55.9 °F 46.0 °F 69% 29.96 in 10.0 mi WSW 3.5 mph - N/A   Clear
8:53 PM 52.0 °F 46.0 °F 80% 29.98 in 10.0 mi Calm Calm - N/A   Clear
9:53 PM 53.1 °F 46.0 °F 77% 30.00 in 8.0 mi Calm Calm - N/A   Clear
10:53 PM 48.0 °F 45.0 °F 89% 30.01 in 10.0 mi WSW 3.5 mph - N/A   Clear
11:53 PM 46.9 °F 44.1 °F 90% 30.00 in 4.0 mi WNW 3.5 mph - N/A   Clear